Location: Go�ngahuizen
(53.0821°N, 5.8849°E)
Time: 12:19:49
(UTC+00:00)

Cosmos 1140 Rocket - Pass Details

Date: 09 April 2020
Orbit: 745 x 767 km, 74.1° (Epoch: 27 May)

Event Time Altitude Azimuth Distance (km) Brightness Sun altitude
Rises 20:06:09 0° 210° (SSW) 3,203 6.7 -14.3°
Reaches altitude 10° 20:08:31 10° 213° (SSW) 2,278 5.9 -14.6°
Maximum altitude 20:13:40 72° 298° (WNW) 794 3.7 -15.2°
Drops below altitude 10° 20:18:50 10° 23° (NNE) 2,280 6.1 -15.9°
Sets 20:21:13 0° 26° (NNE) 3,206 6.9 -16.1°
